Simultaneous Nadir Overpasses (SNOs) Predictions

Prediction of SNOs between GOES-17 and AQUA Satellite Orbit:

Table of predicted SNOs for the next 14.0 days since TLE Epoch: 11/21/2020
Index Date Time (GOES-17) GOES-17 Lat,Lon AQUA Lat,Lon Distance(km) Time Diff (sec)
1 11/22/2020 10:33:15 0.01,-137.22 -0.64,-134.22 341.98 80
2 11/22/2020 22:51:59 -0.01,-137.21 -0.47,-139.41 249.13 80
3 11/24/2020 22:42:28 -0.01,-137.23 0.14,-136.45 88.22 80
4 11/25/2020 11:01:04 0.00,-137.24 0.95,-141.61 496.98 80
5 11/26/2020 22:30:18 -0.01,-137.24 0.82,-133.51 425.14 80
6 11/27/2020 10:48:54 0.01,-137.25 0.28,-138.66 160.21 80
7 11/29/2020 10:39:23 0.01,-137.25 -0.35,-135.71 175.98 80
8 11/29/2020 22:58:06 -0.01,-137.24 -0.76,-140.90 415.63 80
9 12/01/2020 22:45:56 -0.01,-137.23 -0.14,-137.94 80.63 80
10 12/03/2020 22:36:25 -0.01,-137.21 0.50,-134.99 253.59 80
11 12/04/2020 10:54:59 0.00,-137.22 0.65,-140.14 332.42 80
